Station 41024 - Sunset Nearshore, NC (SUN2) Image indicating link to RSS feed of recent meteorological observations for station 41024


Conditions at 41024 as of
(12:08 pm EDT)
1608 GMT on 05/22/2024:
     

Click on the graph icon in the table below to see a time series plot of the last five days of that observation.

5-day plot - Wind Direction Wind Direction (WDIR): S ( 170 deg true )
5-day plot - Wind Speed Wind Speed (WSPD):3.0 m/s
5-day plot - Wind Gust Wind Gust (GST):4.0 m/s
5-day plot - Atmospheric Pressure Atmospheric Pressure (PRES):1018.0 mb
5-day plot - Air Temperature Air Temperature (ATMP): 23.4 °C
5-day plot - Water Temperature Water Temperature (WTMP): 23.5 °C
5-day plot - Dew Point Dew Point (DEWP): 17.9 °C
5-day plot - Wind Speed at 10 Meters Wind Speed at 10 meters (WSPD10M): 3 m/s
5-day plot - Wind Speed at 20 Meters Wind Speed at 20 meters (WSPD20M): 4 m/s
5-day plot -  Wind Speed, Wind Gust and Atmospheric Pressure Combined plot of Wind Speed, Gust, and Air Pressure
Previous observations
TIME
(EDT)
5-day plot - Wind Direction
WDIR
 
5-day plot - Wind Speed
WSPD
m/s
5-day plot - Wind Gust
GST
m/s
5-day plot - Wave Height
WVHT
m
5-day plot - Dominant Wave Period
DPD
sec
5-day plot - Average Wave Period
APD
sec
5-day plot - Mean Wave Direction
MWD
 
5-day plot - Atmospheric Pressure
PRES
mb
5-day plot - Pressure Tendency
PTDY
mb
5-day plot - Air Temperature
ATMP
°C
5-day plot - Water Temperature
WTMP
°C
5-day plot - Dew Point
DEWP
°C
5-day plot - Salinity
SAL
psu
5-day plot - Visibility
VIS
km
5-day plot - Tide (above MLLW)
TIDE
m
2024-05-22 11:08 amSSE 3.0 4.0----1018.2- 22.7 23.0 19.0---
2024-05-22 10:08 am- 0.0 1.0----1018.9- 22.9 22.9 20.9---
2024-05-22 09:08 amNNW 2.0 4.0----1018.9- 21.1 22.7 20.4---
2024-05-22 08:08 am N 3.0 4.0----1018.1- 19.8 22.6 19.5---
2024-05-22 07:08 am N 3.0 4.0----1017.9- 19.8 22.5 19.7---
2024-05-22 06:08 am N 2.0 3.0----1016.5- 20.1 22.6 20.0---
2024-05-22 05:08 am N 2.0 3.0----1016.2- 20.2 22.6 19.7---
2024-05-22 04:08 amESE 2.0 3.0----1016.2- 21.4 22.6 20.6---
2024-05-22 03:08 am SE 3.0 5.0----1015.6- 21.5 22.5 20.7---
2024-05-22 02:08 am SE 3.0 4.0----1016.3- 21.5 22.7 20.6---
2024-05-22 01:08 am SE 3.0 3.0----1016.2- 21.5 22.7 20.5---
2024-05-22 12:08 am SE 3.0 4.0----1016.3- 21.4 22.7 20.3---
2024-05-21 11:08 pm SE 3.0 4.0----1016.2- 21.5 22.7 20.4---
2024-05-21 10:08 pmSSE 3.0 4.0----1016.0- 21.6 22.7 20.1---
2024-05-21 09:08 pm SE 3.0 5.0----1016.0- 21.8 22.8 19.1---
2024-05-21 08:08 pm SE 3.0 4.0----1015.6- 21.8 23.0 19.1---
2024-05-21 07:08 pmSSE 4.0 6.0----1015.7- 21.9 23.0 19.1---
2024-05-21 06:08 pmSSE 5.0 6.0----1015.7- 22.1 23.0 19.1---
2024-05-21 05:08 pm SE 5.0 8.0----1015.3- 21.8 23.0 19.0---
2024-05-21 04:08 pm SE 6.0 8.0----1015.2- 21.8 22.9 19.3---
2024-05-21 03:08 pmSSE 6.0 7.0----1015.9- 21.7 22.8 19.2---
2024-05-21 02:08 pm SE 6.0 7.0----1016.2- 21.4 22.9 18.9---
2024-05-21 01:08 pm SE 5.0 7.0----1016.5- 20.6 22.8 19.2---